This is the latest recevied weather packets stored in our database for station/object W2OBX. If no packets are shown the sender has not sent any weather packets the latest 10 day(s).
| Time | Temp. | Humidity | Pressure | Rain* | Wind** | Luminosity | Snow |
|---|---|---|---|---|---|---|---|
| 1778091215 | 22.78° C | 80% | 1012.5 hPa | 0 mm | - | 138 W/m² | - |
| 1778090912 | 22.22° C | 80% | 1012.3 hPa | 0 mm | - | 409 W/m² | - |
| 1778090608 | 22.22° C | 80% | 1012.5 hPa | 0 mm | - | 365 W/m² | - |
| 1778090304 | 22.22° C | 81% | 1012.2 hPa | 0 mm | - | 293 W/m² | - |
| 1778090001 | 21.67° C | 81% | 1012.3 hPa | 0 mm | - | 305 W/m² | - |
| 1778089698 | 22.22° C | 83% | 1012.4 hPa | 0 mm | - | 123 W/m² | - |
| 1778089396 | 21.67° C | 83% | 1012.3 hPa | 0 mm | - | 212 W/m² | - |
| 1778089093 | 21.67° C | 82% | 1012.4 hPa | 0 mm | - | 156 W/m² | - |
| 1778088790 | 21.67° C | 83% | 1012.2 hPa | 0 mm | - | 273 W/m² | - |
| 1778088487 | 21.67° C | 85% | 1012.4 hPa | 0 mm | - | 372 W/m² | - |
| 1778088183 | 21.11° C | 86% | 1012.4 hPa | 0 mm | - | 331 W/m² | - |
| 1778087881 | 21.11° C | 84% | 1012.4 hPa | 0 mm | - | 223 W/m² | - |
| 1778087578 | 21.11° C | 84% | 1012.4 hPa | 0 mm | - | 267 W/m² | - |
| 1778087276 | 20.56° C | 90% | 1012.4 hPa | 0 mm | - | 236 W/m² | - |
| 1778086971 | 20.56° C | 88% | 1012.3 hPa | 0 mm | - | 130 W/m² | - |
| 1778086670 | 20° C | 89% | 1012.3 hPa | 0 mm | - | 141 W/m² | - |
| 1778086367 | 20° C | 91% | 1012.3 hPa | 0 mm | - | 124 W/m² | - |
| 1778086064 | 20° C | 91% | 1012.4 hPa | 0 mm | - | 108 W/m² | - |
| 1778085761 | 20° C | 95% | 1012.4 hPa | 0 mm | - | 135 W/m² | - |
| 1778085458 | 19.44° C | 94% | 1012.4 hPa | 0 mm | - | 115 W/m² | - |
| 1778085152 | 18.89° C | 93% | 1012.4 hPa | 0 mm | - | 93 W/m² | - |
| 1778084849 | 18.89° C | 93% | 1012.7 hPa | 0 mm | - | 94 W/m² | - |
| 1778084547 | 18.89° C | 94% | 1012.7 hPa | 0 mm | - | 104 W/m² | - |
| 1778084244 | 18.33° C | 95% | 1012.7 hPa | 0 mm | - | 77 W/m² | - |
| 1778083941 | 18.33° C | 95% | 1013.3 hPa | 0 mm | - | 77 W/m² | - |
* Rain latest hour (hover to see other rain measurements)
** Current wind speed in m/s (hover to see current wind gust speed)